Tracking 19909 objects as of 21-Oct-2019
HD Live streaming from Space Station
objects crossing your sky now

COSMOS 2190

Track COSMOS 2190 now!
10-day predictions
COSMOS 2190 is classified as:


NORAD ID: 21979
Int'l Code: 1992-030D
Perigee: 1,437.6 km
Apogee: 1,486.9 km
Inclination: 74.0 °
Period: 115.0 minutes
Semi major axis: 7833 km
RCS: 0.7129 m2 (medium)
Launch date: June 3, 1992
Source: Commonwealth of Independent States (former USSR) (CIS)
Launch site: PLESETSK MISSILE AND SPACE COMPLEX (PKMTR)
aabbcc
Your satellite tracking list
Your tracking list is empty




NASA's NSSDC Master Catalog

Two Line Element Set (TLE):
1 21979U 92030D   19292.33174573 +.00000001 +00000-0 +10650-3 0  9994
2 21979 074.0032 228.7057 0031459 172.9718 291.7810 12.52241790251430
Source of the keplerian elements: AFSPC